Time,TemperatureF,DewpointF,PressureIn,WindDirection,WindDirectionDegrees,WindSpeedMPH,WindSpeedGustMPH,Humidity,HourlyPrecipIn,Conditions,Clouds,dailyrainin,SoftwareType,DateUTC
2013-02-23 00:00:00,36.3,34.5,30.22,East,90,0.0,0.0,93,0.02,,,0.43,meteohub,2013-02-23 05:00:00,
2013-02-23 00:01:00,36.3,34.5,30.22,North,0,0.0,0.0,93,0.01,,,0.43,meteohub,2013-02-23 05:01:00,
2013-02-23 00:06:00,36.3,34.5,30.21,NE,45,0.0,0.0,93,0.01,,,0.00,meteohub,2013-02-23 05:06:00,
2013-02-23 00:11:00,36.3,34.5,30.21,NE,45,0.0,0.0,93,0.01,,,0.00,meteohub,2013-02-23 05:11:00,
2013-02-23 00:17:00,36.3,34.5,30.20,NE,45,0.0,0.0,93,0.01,,,0.00,meteohub,2013-02-23 05:17:00,
2013-02-23 00:22:00,36.3,34.5,30.21,NNE,23,0.0,0.0,93,0.01,,,0.00,meteohub,2013-02-23 05:22:00,
2013-02-23 00:27:00,36.3,34.5,30.20,NE,45,0.0,0.0,93,0.00,,,0.00,meteohub,2013-02-23 05:27:00,
2013-02-23 00:32:00,36.3,34.5,30.20,NNE,23,0.0,0.0,93,0.00,,,0.00,meteohub,2013-02-23 05:32:00,
2013-02-23 00:38:00,36.3,34.5,30.20,North,0,0.0,0.0,93,0.00,,,0.00,meteohub,2013-02-23 05:38:00,
2013-02-23 00:43:00,36.3,34.5,30.19,NE,45,0.0,0.0,93,0.00,,,0.00,meteohub,2013-02-23 05:43:00,
2013-02-23 00:48:00,36.3,34.5,30.19,NE,45,0.0,0.0,93,0.00,,,0.00,meteohub,2013-02-23 05:48:00,
2013-02-23 00:53:00,36.3,34.5,30.19,North,0,0.0,0.0,93,0.00,,,0.00,meteohub,2013-02-23 05:53:00,
2013-02-23 00:58:00,36.5,34.7,30.20,NE,45,0.0,0.0,93,0.00,,,0.00,meteohub,2013-02-23 05:58:00,
2013-02-23 01:03:00,36.5,34.7,30.19,NE,45,0.0,0.0,93,0.00,,,0.00,meteohub,2013-02-23 06:03:00,
2013-02-23 01:08:00,36.5,34.7,30.19,NNE,23,0.0,0.0,93,0.00,,,0.00,meteohub,2013-02-23 06:08:00,
2013-02-23 01:13:00,36.5,34.7,30.19,NE,45,0.0,0.0,93,0.00,,,0.00,meteohub,2013-02-23 06:13:00,
2013-02-23 01:19:00,36.5,34.7,30.19,NE,45,0.0,0.0,93,0.00,,,0.00,meteohub,2013-02-23 06:19:00,
2013-02-23 01:24:00,36.5,34.7,30.19,NE,45,0.0,0.0,93,0.00,,,0.00,meteohub,2013-02-23 06:24:00,
2013-02-23 01:29:00,36.5,34.7,30.19,NE,45,0.0,0.0,93,0.00,,,0.00,meteohub,2013-02-23 06:29:00,
2013-02-23 01:34:00,36.5,34.7,30.19,North,0,0.0,0.0,93,0.00,,,0.00,meteohub,2013-02-23 06:34:00,
2013-02-23 01:39:00,36.5,34.7,30.18,NE,45,0.0,0.0,93,0.00,,,0.00,meteohub,2013-02-23 06:39:00,
2013-02-23 01:45:00,36.5,34.7,30.18,North,0,0.0,0.0,93,0.00,,,0.00,meteohub,2013-02-23 06:45:00,
2013-02-23 01:50:00,36.5,34.7,30.17,North,0,0.0,0.0,93,0.00,,,0.00,meteohub,2013-02-23 06:50:00,
2013-02-23 01:55:00,36.5,34.7,30.18,North,0,0.0,0.0,93,0.00,,,0.00,meteohub,2013-02-23 06:55:00,
2013-02-23 02:00:00,36.5,34.7,30.17,NE,45,0.0,0.0,93,0.00,,,0.00,meteohub,2013-02-23 07:00:00,
2013-02-23 02:05:00,36.5,34.9,30.18,East,90,0.0,0.0,94,0.00,,,0.00,meteohub,2013-02-23 07:05:00,
2013-02-23 02:10:00,36.5,34.9,30.19,North,0,0.0,0.0,94,0.00,,,0.00,meteohub,2013-02-23 07:10:00,
2013-02-23 02:15:00,36.7,35.1,30.17,NE,45,0.0,0.0,94,0.00,,,0.00,meteohub,2013-02-23 07:15:00,
2013-02-23 02:20:00,36.7,35.1,30.17,NE,45,1.0,0.0,94,0.00,,,0.00,meteohub,2013-02-23 07:20:00,
2013-02-23 02:25:00,36.7,35.1,30.17,North,0,0.0,1.0,94,0.01,,,0.01,meteohub,2013-02-23 07:25:00,
2013-02-23 02:31:00,36.7,35.1,30.17,North,0,0.0,1.0,94,0.01,,,0.01,meteohub,2013-02-23 07:31:00,
2013-02-23 02:36:00,36.7,35.1,30.17,NW,315,0.0,1.0,94,0.01,,,0.01,meteohub,2013-02-23 07:36:00,
2013-02-23 02:41:00,36.7,35.1,30.17,NNE,23,0.0,4.0,94,0.02,,,0.02,meteohub,2013-02-23 07:41:00,
2013-02-23 02:46:00,36.7,35.1,30.16,East,90,1.0,4.0,94,0.02,,,0.02,meteohub,2013-02-23 07:46:00,
2013-02-23 02:51:00,36.7,35.1,30.15,NE,45,1.0,2.0,94,0.06,,,0.06,meteohub,2013-02-23 07:51:00,
2013-02-23 02:56:00,36.7,35.1,30.14,North,0,0.0,1.0,94,0.07,,,0.07,meteohub,2013-02-23 07:56:00,
2013-02-23 03:01:00,36.7,35.1,30.15,West,270,0.0,1.0,94,0.07,,,0.07,meteohub,2013-02-23 08:01:00,
2013-02-23 03:06:00,36.7,35.1,30.14,SE,135,0.0,1.0,94,0.08,,,0.08,meteohub,2013-02-23 08:06:00,
2013-02-23 03:12:00,36.7,35.1,30.14,North,0,0.0,0.0,94,0.08,,,0.08,meteohub,2013-02-23 08:12:00,
2013-02-23 03:17:00,36.7,35.1,30.14,North,0,0.0,0.0,94,0.08,,,0.08,meteohub,2013-02-23 08:17:00,
2013-02-23 03:22:00,36.5,34.9,30.13,North,0,0.0,0.0,94,0.07,,,0.08,meteohub,2013-02-23 08:22:00,
2013-02-23 03:27:00,36.5,34.9,30.12,North,0,0.0,0.0,94,0.07,,,0.08,meteohub,2013-02-23 08:27:00,
2013-02-23 03:32:00,36.5,34.9,30.12,NE,45,0.0,0.0,94,0.07,,,0.08,meteohub,2013-02-23 08:32:00,
2013-02-23 03:37:00,36.7,35.1,30.12,North,0,0.0,0.0,94,0.07,,,0.08,meteohub,2013-02-23 08:37:00,
2013-02-23 03:42:00,36.7,35.1,30.11,NE,45,0.0,0.0,94,0.06,,,0.08,meteohub,2013-02-23 08:42:00,
2013-02-23 03:47:00,36.7,35.1,30.10,NE,45,0.0,0.0,94,0.04,,,0.08,meteohub,2013-02-23 08:47:00,
2013-02-23 03:53:00,36.7,35.1,30.10,NE,45,0.0,0.0,94,0.02,,,0.08,meteohub,2013-02-23 08:53:00,
2013-02-23 03:58:00,36.7,35.1,30.10,East,90,0.0,2.0,94,0.01,,,0.08,meteohub,2013-02-23 08:58:00,
2013-02-23 04:03:00,36.7,35.1,30.10,NE,45,0.0,2.0,94,0.01,,,0.08,meteohub,2013-02-23 09:03:00,
2013-02-23 04:08:00,36.7,35.1,30.10,NE,45,0.0,2.0,94,0.00,,,0.08,meteohub,2013-02-23 09:08:00,
2013-02-23 04:13:00,36.7,35.1,30.10,NE,45,0.0,1.0,94,0.00,,,0.08,meteohub,2013-02-23 09:13:00,
2013-02-23 04:18:00,36.7,35.1,30.10,North,0,0.0,0.0,94,0.00,,,0.08,meteohub,2013-02-23 09:18:00,
2013-02-23 04:23:00,36.9,35.2,30.11,NE,45,0.0,0.0,94,0.00,,,0.08,meteohub,2013-02-23 09:23:00,
2013-02-23 04:28:00,36.9,35.2,30.11,East,90,0.0,0.0,94,0.00,,,0.08,meteohub,2013-02-23 09:28:00,
2013-02-23 04:33:00,36.9,35.2,30.11,NE,45,0.0,0.0,94,0.00,,,0.08,meteohub,2013-02-23 09:33:00,
2013-02-23 04:38:00,36.9,35.2,30.10,NE,45,0.0,0.0,94,0.00,,,0.08,meteohub,2013-02-23 09:38:00,
2013-02-23 04:44:00,36.9,35.2,30.10,East,90,0.0,0.0,94,0.00,,,0.08,meteohub,2013-02-23 09:44:00,
2013-02-23 04:49:00,36.9,35.2,30.11,NE,45,0.0,0.0,94,0.00,,,0.08,meteohub,2013-02-23 09:49:00,
2013-02-23 04:54:00,36.9,35.2,30.10,NE,45,0.0,0.0,94,0.01,,,0.09,meteohub,2013-02-23 09:54:00,
2013-02-23 04:59:00,37.0,35.4,30.11,NW,315,0.0,0.0,94,0.02,,,0.11,meteohub,2013-02-23 09:59:00,
2013-02-23 05:04:00,37.0,35.8,30.12,NE,45,0.0,0.0,95,0.04,,,0.12,meteohub,2013-02-23 10:04:00,
2013-02-23 05:09:00,37.0,35.8,30.11,ESE,113,0.0,0.0,95,0.04,,,0.12,meteohub,2013-02-23 10:09:00,
2013-02-23 05:14:00,37.0,35.8,30.12,NW,315,0.0,1.0,95,0.08,,,0.17,meteohub,2013-02-23 10:14:00,
2013-02-23 05:19:00,37.0,35.8,30.12,NE,45,0.0,1.0,95,0.11,,,0.19,meteohub,2013-02-23 10:19:00,
2013-02-23 05:25:00,37.0,35.8,30.12,East,90,0.0,1.0,95,0.13,,,0.22,meteohub,2013-02-23 10:25:00,
2013-02-23 05:30:00,37.0,35.8,30.11,West,270,0.0,0.0,95,0.15,,,0.24,meteohub,2013-02-23 10:30:00,
2013-02-23 05:35:00,37.0,35.8,30.12,West,270,0.0,0.0,95,0.15,,,0.24,meteohub,2013-02-23 10:35:00,
2013-02-23 05:40:00,37.2,36.0,30.13,West,270,0.0,0.0,95,0.15,,,0.24,meteohub,2013-02-23 10:40:00,
2013-02-23 05:45:00,37.2,36.0,30.12,NW,315,0.0,0.0,95,0.18,,,0.26,meteohub,2013-02-23 10:45:00,
2013-02-23 05:51:00,37.2,36.0,30.12,NE,45,0.0,0.0,95,0.18,,,0.26,meteohub,2013-02-23 10:51:00,
2013-02-23 05:56:00,37.2,36.0,30.12,ESE,113,0.0,0.0,95,0.17,,,0.27,meteohub,2013-02-23 10:56:00,
2013-02-23 06:01:00,37.2,36.0,30.13,NE,45,0.0,0.0,95,0.15,,,0.27,meteohub,2013-02-23 11:01:00,
2013-02-23 06:06:00,37.2,36.0,30.13,NE,45,0.0,0.0,95,0.15,,,0.28,meteohub,2013-02-23 11:06:00,
2013-02-23 06:11:00,37.2,36.0,30.13,East,90,0.0,0.0,95,0.13,,,0.30,meteohub,2013-02-23 11:11:00,
2013-02-23 06:16:00,37.2,36.0,30.13,NE,45,0.0,0.0,95,0.09,,,0.30,meteohub,2013-02-23 11:16:00,
2013-02-23 06:21:00,37.4,37.2,30.13,NE,45,0.0,0.0,99,0.09,,,0.31,meteohub,2013-02-23 11:21:00,
2013-02-23 06:28:00,37.4,37.2,30.13,NE,45,0.0,0.0,99,0.08,,,0.31,meteohub,2013-02-23 11:28:00,
2013-02-23 06:33:00,37.4,37.2,30.13,NE,45,0.0,0.0,99,0.07,,,0.31,meteohub,2013-02-23 11:33:00,
2013-02-23 06:38:00,37.4,37.2,30.12,NE,45,0.0,0.0,99,0.08,,,0.32,meteohub,2013-02-23 11:38:00,
2013-02-23 06:43:00,37.4,37.2,30.12,NE,45,0.0,0.0,99,0.07,,,0.32,meteohub,2013-02-23 11:43:00,
2013-02-23 06:48:00,37.4,37.2,30.12,NE,45,0.0,0.0,99,0.07,,,0.33,meteohub,2013-02-23 11:48:00,
2013-02-23 06:53:00,37.6,37.4,30.12,NE,45,0.0,0.0,99,0.06,,,0.33,meteohub,2013-02-23 11:53:00,
2013-02-23 06:58:00,37.6,37.4,30.12,NE,45,0.0,0.0,99,0.07,,,0.34,meteohub,2013-02-23 11:58:00,
2013-02-23 07:03:00,37.6,37.4,30.12,North,0,0.0,0.0,99,0.06,,,0.34,meteohub,2013-02-23 12:03:00,
2013-02-23 07:08:00,37.6,37.4,30.12,North,0,0.0,0.0,99,0.07,,,0.35,meteohub,2013-02-23 12:08:00,
2013-02-23 07:13:00,37.6,37.4,30.09,NE,45,0.0,0.0,99,0.07,,,0.37,meteohub,2013-02-23 12:13:00,
2013-02-23 07:18:00,37.6,37.4,30.09,East,90,0.0,0.0,99,0.07,,,0.37,meteohub,2013-02-23 12:18:00,
2013-02-23 07:24:00,37.6,37.4,30.10,East,90,0.0,0.0,99,0.07,,,0.38,meteohub,2013-02-23 12:24:00,
2013-02-23 07:29:00,37.6,37.4,30.09,East,90,0.0,0.0,99,0.07,,,0.38,meteohub,2013-02-23 12:29:00,
2013-02-23 07:34:00,37.6,37.4,30.08,East,90,0.0,0.0,99,0.08,,,0.39,meteohub,2013-02-23 12:34:00,
2013-02-23 07:39:00,37.6,37.4,30.06,East,90,0.0,0.0,99,0.07,,,0.39,meteohub,2013-02-23 12:39:00,
2013-02-23 07:45:00,37.8,37.6,30.11,NW,315,0.0,4.0,99,0.08,,,0.41,meteohub,2013-02-23 12:45:00,
2013-02-23 07:50:00,37.8,37.6,30.09,West,270,0.0,4.0,99,0.08,,,0.41,meteohub,2013-02-23 12:50:00,
2013-02-23 07:55:00,37.8,37.6,30.10,NW,315,0.0,4.0,99,0.09,,,0.44,meteohub,2013-02-23 12:55:00,
2013-02-23 08:00:00,37.8,37.6,30.08,NE,45,0.0,1.0,99,0.08,,,0.44,meteohub,2013-02-23 13:00:00,
2013-02-23 08:05:00,37.9,37.8,30.08,ESE,113,0.0,0.0,99,0.08,,,0.44,meteohub,2013-02-23 13:05:00,
2013-02-23 08:10:00,37.9,37.8,30.08,East,90,0.0,0.0,99,0.09,,,0.46,meteohub,2013-02-23 13:10:00,
2013-02-23 08:15:00,37.9,37.8,30.06,East,90,0.0,0.0,99,0.12,,,0.48,meteohub,2013-02-23 13:15:00,
2013-02-23 08:21:00,38.1,37.9,30.07,East,90,0.0,0.0,99,0.11,,,0.48,meteohub,2013-02-23 13:21:00,
2013-02-23 08:26:00,38.1,37.9,30.07,NW,315,0.0,0.0,99,0.11,,,0.48,meteohub,2013-02-23 13:26:00,
2013-02-23 08:31:00,38.1,37.9,30.08,North,0,0.0,0.0,99,0.11,,,0.50,meteohub,2013-02-23 13:31:00,
2013-02-23 08:36:00,38.3,38.1,30.09,NW,315,0.0,0.0,99,0.11,,,0.50,meteohub,2013-02-23 13:36:00,
2013-02-23 08:41:00,38.3,38.1,30.09,NW,315,0.0,0.0,99,0.11,,,0.51,meteohub,2013-02-23 13:41:00,
2013-02-23 08:46:00,38.3,38.1,30.09,NW,315,0.0,0.0,99,0.09,,,0.51,meteohub,2013-02-23 13:46:00,
2013-02-23 08:51:00,38.5,38.3,30.09,North,0,0.0,0.0,99,0.08,,,0.51,meteohub,2013-02-23 13:51:00,
2013-02-23 08:56:00,38.5,38.3,30.08,North,0,0.0,0.0,99,0.08,,,0.52,meteohub,2013-02-23 13:56:00,
2013-02-23 09:01:00,38.7,38.5,30.09,North,0,0.0,1.0,99,0.09,,,0.53,meteohub,2013-02-23 14:01:00,
2013-02-23 09:07:00,38.7,38.5,30.09,North,0,0.0,1.0,99,0.08,,,0.54,meteohub,2013-02-23 14:07:00,
2013-02-23 09:12:00,38.7,38.5,30.09,North,0,0.0,1.0,99,0.08,,,0.56,meteohub,2013-02-23 14:12:00,
2013-02-23 09:17:00,38.8,38.7,30.10,SW,225,0.0,1.0,99,0.07,,,0.56,meteohub,2013-02-23 14:17:00,
2013-02-23 09:22:00,38.8,38.7,30.10,West,270,0.0,1.0,99,0.09,,,0.58,meteohub,2013-02-23 14:22:00,
2013-02-23 09:27:00,38.8,38.7,30.10,West,270,0.0,0.0,99,0.09,,,0.58,meteohub,2013-02-23 14:27:00,
2013-02-23 09:32:00,38.8,38.7,30.10,West,270,0.0,0.0,99,0.11,,,0.60,meteohub,2013-02-23 14:32:00,
2013-02-23 09:37:00,39.0,38.8,30.08,SE,135,0.0,0.0,99,0.13,,,0.63,meteohub,2013-02-23 14:37:00,
2013-02-23 09:42:00,39.0,38.8,30.08,NW,315,0.0,0.0,99,0.12,,,0.63,meteohub,2013-02-23 14:42:00,
2013-02-23 09:47:00,39.2,39.0,30.10,West,270,0.0,0.0,99,0.14,,,0.65,meteohub,2013-02-23 14:47:00,
2013-02-23 09:52:00,39.0,38.8,30.08,North,0,0.0,0.0,99,0.14,,,0.65,meteohub,2013-02-23 14:52:00,
2013-02-23 09:57:00,39.2,39.0,30.08,NW,315,0.0,0.0,99,0.13,,,0.65,meteohub,2013-02-23 14:57:00,
2013-02-23 10:03:00,39.2,39.0,30.08,NW,315,0.0,0.0,99,0.12,,,0.65,meteohub,2013-02-23 15:03:00,
2013-02-23 10:07:00,39.2,39.0,30.07,North,0,0.0,0.0,99,0.11,,,0.65,meteohub,2013-02-23 15:07:00,
2013-02-23 10:13:00,39.2,39.0,30.06,East,90,0.0,0.0,99,0.09,,,0.65,meteohub,2013-02-23 15:13:00,
2013-02-23 10:18:00,39.2,39.0,30.08,NW,315,0.0,0.0,99,0.09,,,0.65,meteohub,2013-02-23 15:18:00,
2013-02-23 10:26:00,39.2,39.0,30.09,NW,315,0.0,0.0,99,0.08,,,0.66,meteohub,2013-02-23 15:26:00,
2013-02-23 10:31:00,39.2,39.0,30.07,NW,315,0.0,1.0,99,0.06,,,0.67,meteohub,2013-02-23 15:31:00,
2013-02-23 10:36:00,39.2,39.0,30.07,North,0,0.0,1.0,99,0.06,,,0.69,meteohub,2013-02-23 15:36:00,
2013-02-23 10:41:00,39.2,39.0,30.06,NE,45,0.0,1.0,99,0.06,,,0.70,meteohub,2013-02-23 15:41:00,
2013-02-23 10:46:00,39.2,39.0,30.07,NW,315,0.0,1.0,99,0.05,,,0.70,meteohub,2013-02-23 15:46:00,
2013-02-23 10:51:00,39.2,39.0,30.06,NW,315,0.0,1.0,99,0.05,,,0.70,meteohub,2013-02-23 15:51:00,
2013-02-23 10:56:00,39.4,39.2,30.07,NE,45,0.0,0.0,99,0.05,,,0.70,meteohub,2013-02-23 15:56:00,
2013-02-23 11:02:00,39.2,39.0,30.08,NW,315,0.0,1.0,99,0.05,,,0.70,meteohub,2013-02-23 16:02:00,
2013-02-23 11:07:00,39.2,39.0,30.08,NW,315,0.0,1.0,99,0.05,,,0.70,meteohub,2013-02-23 16:07:00,
2013-02-23 11:12:00,39.4,39.2,30.08,NW,315,0.0,1.0,99,0.05,,,0.70,meteohub,2013-02-23 16:12:00,
2013-02-23 11:17:00,39.2,39.0,30.07,NNW,338,0.0,0.0,99,0.05,,,0.70,meteohub,2013-02-23 16:17:00,
2013-02-23 11:22:00,39.4,39.2,30.07,NW,315,0.0,0.0,99,0.04,,,0.70,meteohub,2013-02-23 16:22:00,
2013-02-23 11:27:00,39.4,39.2,30.06,NW,315,0.0,1.0,99,0.04,,,0.70,meteohub,2013-02-23 16:27:00,
2013-02-23 11:32:00,39.6,39.4,30.04,NE,45,0.0,1.0,99,0.02,,,0.70,meteohub,2013-02-23 16:32:00,
2013-02-23 11:37:00,39.7,39.6,30.06,NW,315,0.0,0.0,99,0.02,,,0.71,meteohub,2013-02-23 16:37:00,
2013-02-23 11:42:00,39.9,39.7,30.06,NW,315,0.0,0.0,99,0.01,,,0.71,meteohub,2013-02-23 16:42:00,
2013-02-23 11:47:00,39.9,39.7,30.05,NW,315,0.0,0.0,99,0.01,,,0.71,meteohub,2013-02-23 16:47:00,
2013-02-23 11:52:00,39.9,39.7,30.05,North,0,0.0,1.0,99,0.01,,,0.71,meteohub,2013-02-23 16:52:00,
2013-02-23 11:57:00,40.1,39.9,30.05,North,0,0.0,1.0,99,0.02,,,0.72,meteohub,2013-02-23 16:57:00,
2013-02-23 12:03:00,40.3,40.1,30.05,North,0,0.0,1.0,99,0.02,,,0.72,meteohub,2013-02-23 17:03:00,
2013-02-23 12:08:00,40.3,40.1,30.04,North,0,0.0,1.0,99,0.02,,,0.72,meteohub,2013-02-23 17:08:00,
2013-02-23 12:13:00,40.5,40.3,30.05,NW,315,0.0,0.0,99,0.02,,,0.72,meteohub,2013-02-23 17:13:00,
2013-02-23 12:18:00,40.5,40.3,30.05,NW,315,0.0,0.0,99,0.02,,,0.72,meteohub,2013-02-23 17:18:00,
2013-02-23 12:24:00,40.5,40.3,30.05,North,0,0.0,0.0,99,0.04,,,0.73,meteohub,2013-02-23 17:24:00,
2013-02-23 12:29:00,40.5,40.3,30.04,NW,315,0.0,0.0,99,0.04,,,0.73,meteohub,2013-02-23 17:29:00,
2013-02-23 12:34:00,40.5,40.3,30.04,North,0,0.0,0.0,99,0.04,,,0.73,meteohub,2013-02-23 17:34:00,
2013-02-23 12:40:00,40.6,40.5,30.04,NW,315,0.0,0.0,99,0.02,,,0.73,meteohub,2013-02-23 17:40:00,
2013-02-23 12:45:00,40.5,40.3,30.04,NW,315,0.0,1.0,99,0.02,,,0.73,meteohub,2013-02-23 17:45:00,
2013-02-23 12:50:00,40.5,40.3,30.04,NW,315,0.0,1.0,99,0.01,,,0.73,meteohub,2013-02-23 17:50:00,
2013-02-23 12:55:00,40.5,40.3,30.04,NW,315,0.0,1.0,99,0.01,,,0.73,meteohub,2013-02-23 17:55:00,
2013-02-23 13:01:00,40.6,40.5,30.03,NW,315,0.0,1.0,99,0.01,,,0.73,meteohub,2013-02-23 18:01:00,
2013-02-23 13:06:00,40.8,40.6,30.03,North,0,0.0,1.0,99,0.01,,,0.73,meteohub,2013-02-23 18:06:00,
2013-02-23 13:11:00,40.8,40.6,30.03,NW,315,0.0,0.0,99,0.01,,,0.73,meteohub,2013-02-23 18:11:00,
2013-02-23 13:16:00,40.8,40.6,30.03,West,270,0.0,0.0,99,0.01,,,0.73,meteohub,2013-02-23 18:16:00,
2013-02-23 13:21:00,40.8,40.6,30.03,NW,315,0.0,0.0,99,0.00,,,0.73,meteohub,2013-02-23 18:21:00,
2013-02-23 13:26:00,41.0,40.5,30.03,NW,315,0.0,0.0,98,0.00,,,0.73,meteohub,2013-02-23 18:26:00,
2013-02-23 13:31:00,41.2,40.6,30.03,NW,315,0.0,0.0,98,0.01,,,0.74,meteohub,2013-02-23 18:31:00,
2013-02-23 13:37:00,41.4,40.8,30.03,West,270,0.0,0.0,98,0.01,,,0.74,meteohub,2013-02-23 18:37:00,
2013-02-23 13:42:00,41.4,40.8,30.03,NW,315,0.0,0.0,98,0.01,,,0.74,meteohub,2013-02-23 18:42:00,
2013-02-23 13:47:00,41.4,40.8,30.04,NW,315,0.0,0.0,98,0.01,,,0.74,meteohub,2013-02-23 18:47:00,
2013-02-23 13:52:00,41.4,40.8,30.03,West,270,0.0,0.0,98,0.01,,,0.74,meteohub,2013-02-23 18:52:00,
2013-02-23 13:57:00,41.4,40.8,30.03,NW,315,0.0,0.0,98,0.01,,,0.74,meteohub,2013-02-23 18:57:00,
2013-02-23 14:02:00,41.2,40.6,30.02,NW,315,0.0,0.0,98,0.01,,,0.74,meteohub,2013-02-23 19:02:00,
2013-02-23 14:08:00,41.4,40.8,30.02,NW,315,0.0,0.0,98,0.01,,,0.74,meteohub,2013-02-23 19:08:00,
2013-02-23 14:13:00,41.4,40.8,30.03,NW,315,0.0,0.0,98,0.01,,,0.74,meteohub,2013-02-23 19:13:00,
2013-02-23 14:18:00,41.5,41.0,30.01,NW,315,0.0,0.0,98,0.01,,,0.74,meteohub,2013-02-23 19:18:00,
2013-02-23 14:23:00,41.7,41.2,30.02,NW,315,0.0,0.0,98,0.01,,,0.74,meteohub,2013-02-23 19:23:00,
2013-02-23 14:29:00,41.9,41.4,30.02,NW,315,0.0,0.0,98,0.01,,,0.74,meteohub,2013-02-23 19:29:00,
2013-02-23 14:34:00,41.9,41.7,30.02,NW,315,0.0,0.0,99,0.00,,,0.74,meteohub,2013-02-23 19:34:00,
2013-02-23 14:39:00,41.9,41.7,30.02,NW,315,0.0,0.0,99,0.00,,,0.74,meteohub,2013-02-23 19:39:00,
2013-02-23 14:44:00,42.1,41.9,30.01,NW,315,0.0,0.0,99,0.00,,,0.74,meteohub,2013-02-23 19:44:00,
2013-02-23 14:49:00,42.3,42.1,30.00,NW,315,0.0,0.0,99,0.00,,,0.74,meteohub,2013-02-23 19:49:00,
2013-02-23 14:54:00,42.6,42.4,30.00,NW,315,0.0,0.0,99,0.00,,,0.74,meteohub,2013-02-23 19:54:00,
2013-02-23 15:00:00,42.6,42.4,29.99,NW,315,0.0,0.0,99,0.00,,,0.74,meteohub,2013-02-23 20:00:00,
2013-02-23 15:05:00,42.8,42.3,29.99,NW,315,0.0,0.0,98,0.00,,,0.74,meteohub,2013-02-23 20:05:00,
2013-02-23 15:10:00,43.0,42.4,29.99,NW,315,0.0,0.0,98,0.00,,,0.74,meteohub,2013-02-23 20:10:00,
2013-02-23 15:15:00,43.0,42.4,29.98,NW,315,0.0,0.0,98,0.00,,,0.74,meteohub,2013-02-23 20:15:00,
2013-02-23 15:20:00,43.2,42.6,29.98,North,0,0.0,0.0,98,0.00,,,0.74,meteohub,2013-02-23 20:20:00,
2013-02-23 15:25:00,43.2,42.6,29.98,NW,315,0.0,0.0,98,0.00,,,0.74,meteohub,2013-02-23 20:25:00,
2013-02-23 15:30:00,43.2,42.6,29.98,NW,315,0.0,0.0,98,0.00,,,0.74,meteohub,2013-02-23 20:30:00,
2013-02-23 15:35:00,43.2,42.6,29.98,NW,315,0.0,0.0,98,0.00,,,0.74,meteohub,2013-02-23 20:35:00,
2013-02-23 15:40:00,43.2,42.6,29.98,NW,315,0.0,0.0,98,0.00,,,0.74,meteohub,2013-02-23 20:40:00,
2013-02-23 15:45:00,43.2,42.4,29.98,NW,315,0.0,0.0,97,0.00,,,0.74,meteohub,2013-02-23 20:45:00,
2013-02-23 15:51:00,43.3,42.6,29.97,North,0,0.0,0.0,97,0.00,,,0.74,meteohub,2013-02-23 20:51:00,
2013-02-23 15:56:00,43.2,42.6,29.97,NW,315,0.0,0.0,98,0.00,,,0.74,meteohub,2013-02-23 20:56:00,
2013-02-23 16:01:00,43.3,42.6,29.98,NW,315,0.0,0.0,97,0.00,,,0.74,meteohub,2013-02-23 21:01:00,
2013-02-23 16:06:00,43.5,42.8,29.98,North,0,0.0,0.0,97,0.00,,,0.74,meteohub,2013-02-23 21:06:00,
2013-02-23 16:11:00,43.5,42.8,29.98,NW,315,0.0,0.0,97,0.00,,,0.74,meteohub,2013-02-23 21:11:00,
2013-02-23 16:17:00,43.5,42.8,29.98,NW,315,0.0,0.0,97,0.00,,,0.74,meteohub,2013-02-23 21:17:00,
2013-02-23 16:22:00,43.3,42.6,29.98,West,270,0.0,0.0,97,0.00,,,0.74,meteohub,2013-02-23 21:22:00,
2013-02-23 16:27:00,43.3,42.6,29.99,West,270,0.0,0.0,97,0.00,,,0.74,meteohub,2013-02-23 21:27:00,
2013-02-23 16:32:00,43.3,42.6,29.98,West,270,0.0,0.0,97,0.00,,,0.74,meteohub,2013-02-23 21:32:00,
2013-02-23 16:37:00,43.3,42.6,29.99,North,0,0.0,0.0,97,0.00,,,0.74,meteohub,2013-02-23 21:37:00,
2013-02-23 16:43:00,43.2,42.4,29.99,North,0,0.0,0.0,97,0.00,,,0.74,meteohub,2013-02-23 21:43:00,
2013-02-23 16:48:00,43.2,42.4,29.99,NW,315,0.0,0.0,97,0.00,,,0.74,meteohub,2013-02-23 21:48:00,
2013-02-23 16:53:00,43.0,42.3,29.99,NW,315,0.0,0.0,97,0.00,,,0.74,meteohub,2013-02-23 21:53:00,
2013-02-23 16:58:00,43.0,42.3,29.99,North,0,0.0,0.0,97,0.00,,,0.74,meteohub,2013-02-23 21:58:00,
2013-02-23 17:03:00,43.0,42.3,29.99,NW,315,0.0,0.0,97,0.00,,,0.74,meteohub,2013-02-23 22:03:00,
2013-02-23 17:09:00,43.0,42.3,29.99,West,270,0.0,0.0,97,0.00,,,0.74,meteohub,2013-02-23 22:09:00,
2013-02-23 17:14:00,43.0,42.3,29.99,NW,315,0.0,0.0,97,0.00,,,0.74,meteohub,2013-02-23 22:14:00,
2013-02-23 17:19:00,43.0,42.3,29.98,NW,315,0.0,0.0,97,0.00,,,0.74,meteohub,2013-02-23 22:19:00,
2013-02-23 17:24:00,43.0,42.3,29.99,NW,315,0.0,0.0,97,0.00,,,0.74,meteohub,2013-02-23 22:24:00,
2013-02-23 17:29:00,43.0,42.3,29.98,NW,315,0.0,0.0,97,0.00,,,0.74,meteohub,2013-02-23 22:29:00,
2013-02-23 17:34:00,43.2,42.4,29.98,NW,315,0.0,0.0,97,0.00,,,0.74,meteohub,2013-02-23 22:34:00,
2013-02-23 17:39:00,43.2,42.4,29.97,East,90,0.0,0.0,97,0.00,,,0.74,meteohub,2013-02-23 22:39:00,
2013-02-23 17:44:00,43.2,42.4,29.98,NW,315,0.0,0.0,97,0.00,,,0.74,meteohub,2013-02-23 22:44:00,
2013-02-23 17:49:00,43.0,42.3,29.97,NW,315,0.0,0.0,97,0.00,,,0.74,meteohub,2013-02-23 22:49:00,
2013-02-23 17:54:00,43.0,42.3,29.96,NW,315,0.0,0.0,97,0.00,,,0.74,meteohub,2013-02-23 22:54:00,
2013-02-23 17:59:00,43.0,42.3,29.95,NW,315,0.0,0.0,97,0.00,,,0.74,meteohub,2013-02-23 22:59:00,
2013-02-23 18:05:00,43.0,42.3,29.96,North,0,0.0,0.0,97,0.00,,,0.74,meteohub,2013-02-23 23:05:00,
2013-02-23 18:10:00,43.0,42.3,29.95,North,0,0.0,0.0,97,0.00,,,0.74,meteohub,2013-02-23 23:10:00,
2013-02-23 18:15:00,43.0,42.3,29.95,North,0,0.0,0.0,97,0.00,,,0.74,meteohub,2013-02-23 23:15:00,
2013-02-23 18:20:00,43.0,42.3,29.95,North,0,0.0,0.0,97,0.00,,,0.74,meteohub,2013-02-23 23:20:00,
2013-02-23 18:25:00,43.0,42.4,29.94,North,0,0.0,0.0,98,0.00,,,0.74,meteohub,2013-02-23 23:25:00,
2013-02-23 18:30:00,43.0,42.4,29.94,NW,315,0.0,0.0,98,0.00,,,0.74,meteohub,2013-02-23 23:30:00,
2013-02-23 18:35:00,43.0,42.3,29.94,NW,315,0.0,0.0,97,0.00,,,0.74,meteohub,2013-02-23 23:35:00,
2013-02-23 18:40:00,43.0,42.4,29.94,NW,315,0.0,0.0,98,0.00,,,0.74,meteohub,2013-02-23 23:40:00,
2013-02-23 18:45:00,43.0,42.4,29.95,NW,315,0.0,0.0,98,0.00,,,0.74,meteohub,2013-02-23 23:45:00,
2013-02-23 18:50:00,43.0,42.4,29.95,NW,315,0.0,0.0,98,0.00,,,0.74,meteohub,2013-02-23 23:50:00,
2013-02-23 18:55:00,43.0,42.4,29.96,NW,315,0.0,0.0,98,0.00,,,0.74,meteohub,2013-02-23 23:55:00,
2013-02-23 19:00:00,43.0,42.4,29.94,NW,315,0.0,0.0,98,0.00,,,0.74,meteohub,2013-02-24 00:00:00,
2013-02-23 19:06:00,43.0,42.4,29.94,NW,315,0.0,0.0,98,0.00,,,0.74,meteohub,2013-02-24 00:06:00,
2013-02-23 19:11:00,43.2,42.6,29.94,NW,315,0.0,0.0,98,0.00,,,0.74,meteohub,2013-02-24 00:11:00,
2013-02-23 19:16:00,43.2,42.6,29.95,NW,315,0.0,0.0,98,0.00,,,0.74,meteohub,2013-02-24 00:16:00,
2013-02-23 19:21:00,43.2,42.6,29.94,NW,315,0.0,0.0,98,0.00,,,0.74,meteohub,2013-02-24 00:21:00,
2013-02-23 19:26:00,43.2,42.6,29.95,NW,315,0.0,0.0,98,0.00,,,0.74,meteohub,2013-02-24 00:26:00,
2013-02-23 19:32:00,43.2,42.6,29.95,NW,315,0.0,0.0,98,0.00,,,0.74,meteohub,2013-02-24 00:32:00,
2013-02-23 19:37:00,43.2,42.6,29.95,NW,315,0.0,0.0,98,0.00,,,0.74,meteohub,2013-02-24 00:37:00,
2013-02-23 19:43:00,43.2,42.6,29.96,NW,315,0.0,0.0,98,0.00,,,0.74,meteohub,2013-02-24 00:43:00,
2013-02-23 19:48:00,43.2,42.6,29.96,NW,315,0.0,0.0,98,0.00,,,0.74,meteohub,2013-02-24 00:48:00,
2013-02-23 19:53:00,43.2,42.6,29.96,NW,315,0.0,0.0,98,0.00,,,0.74,meteohub,2013-02-24 00:53:00,
2013-02-23 19:58:00,43.2,42.6,29.96,NW,315,0.0,0.0,98,0.00,,,0.74,meteohub,2013-02-24 00:58:00,
2013-02-23 20:03:00,43.2,42.6,29.95,NW,315,0.0,0.0,98,0.00,,,0.74,meteohub,2013-02-24 01:03:00,
2013-02-23 20:08:00,43.2,42.6,29.97,West,270,0.0,0.0,98,0.00,,,0.74,meteohub,2013-02-24 01:08:00,
2013-02-23 20:13:00,43.3,42.8,29.96,NW,315,0.0,0.0,98,0.00,,,0.74,meteohub,2013-02-24 01:13:00,
2013-02-23 20:18:00,43.3,42.8,29.97,NW,315,0.0,0.0,98,0.00,,,0.74,meteohub,2013-02-24 01:18:00,
2013-02-23 20:24:00,43.3,42.8,29.97,NW,315,0.0,0.0,98,0.00,,,0.74,meteohub,2013-02-24 01:24:00,
2013-02-23 20:29:00,43.3,42.8,29.96,SW,225,0.0,0.0,98,0.00,,,0.74,meteohub,2013-02-24 01:29:00,
2013-02-23 20:34:00,43.3,42.8,29.97,SW,225,0.0,0.0,98,0.00,,,0.74,meteohub,2013-02-24 01:34:00,
2013-02-23 20:39:00,43.3,42.8,29.97,SW,225,0.0,0.0,98,0.00,,,0.74,meteohub,2013-02-24 01:39:00,
2013-02-23 20:44:00,43.3,42.8,29.97,SW,225,0.0,0.0,98,0.00,,,0.74,meteohub,2013-02-24 01:44:00,
2013-02-23 20:49:00,43.3,42.8,29.97,SW,225,0.0,0.0,98,0.00,,,0.74,meteohub,2013-02-24 01:49:00,
2013-02-23 20:54:00,43.3,42.8,29.97,SW,225,0.0,0.0,98,0.00,,,0.74,meteohub,2013-02-24 01:54:00,
2013-02-23 20:59:00,43.3,42.8,29.97,SW,225,0.0,0.0,98,0.00,,,0.74,meteohub,2013-02-24 01:59:00,
2013-02-23 21:04:00,43.3,42.8,29.97,SW,225,0.0,0.0,98,0.00,,,0.74,meteohub,2013-02-24 02:04:00,
2013-02-23 21:09:00,43.5,43.0,29.96,SSE,158,0.0,0.0,98,0.00,,,0.74,meteohub,2013-02-24 02:09:00,
2013-02-23 21:15:00,43.5,43.0,29.96,SSE,158,0.0,0.0,98,0.00,,,0.74,meteohub,2013-02-24 02:15:00,
2013-02-23 21:20:00,43.5,43.0,29.98,SE,135,0.0,0.0,98,0.00,,,0.74,meteohub,2013-02-24 02:20:00,
2013-02-23 21:25:00,43.5,43.0,29.97,SE,135,0.0,0.0,98,0.00,,,0.74,meteohub,2013-02-24 02:25:00,
2013-02-23 21:30:00,43.5,43.0,29.97,SE,135,0.0,0.0,98,0.00,,,0.74,meteohub,2013-02-24 02:30:00,
2013-02-23 21:35:00,43.5,43.0,29.97,South,180,0.0,0.0,98,0.00,,,0.74,meteohub,2013-02-24 02:35:00,
2013-02-23 21:40:00,43.5,43.0,29.97,SE,135,0.0,0.0,98,0.00,,,0.74,meteohub,2013-02-24 02:40:00,
2013-02-23 21:45:00,43.5,43.0,29.97,SW,225,0.0,0.0,98,0.00,,,0.74,meteohub,2013-02-24 02:45:00,
2013-02-23 21:50:00,43.5,43.0,29.96,South,180,0.0,0.0,98,0.00,,,0.74,meteohub,2013-02-24 02:50:00,
2013-02-23 21:55:00,43.5,43.0,29.96,South,180,0.0,0.0,98,0.00,,,0.74,meteohub,2013-02-24 02:55:00,
2013-02-23 22:00:00,43.5,43.0,29.96,NW,315,0.0,0.0,98,0.00,,,0.74,meteohub,2013-02-24 03:00:00,
2013-02-23 22:05:00,43.5,43.0,29.96,South,180,0.0,0.0,98,0.00,,,0.74,meteohub,2013-02-24 03:05:00,
2013-02-23 22:10:00,43.5,43.0,29.96,South,180,0.0,0.0,98,0.00,,,0.74,meteohub,2013-02-24 03:10:00,
2013-02-23 22:15:00,43.5,43.0,29.96,West,270,0.0,0.0,98,0.00,,,0.74,meteohub,2013-02-24 03:15:00,
2013-02-23 22:21:00,43.5,43.0,29.95,SE,135,0.0,0.0,98,0.00,,,0.74,meteohub,2013-02-24 03:21:00,
2013-02-23 22:26:00,43.5,43.0,29.95,SE,135,0.0,0.0,98,0.00,,,0.74,meteohub,2013-02-24 03:26:00,
2013-02-23 22:31:00,43.5,43.0,29.95,SW,225,0.0,0.0,98,0.00,,,0.74,meteohub,2013-02-24 03:31:00,
2013-02-23 22:36:00,43.5,43.0,29.95,SW,225,0.0,0.0,98,0.00,,,0.74,meteohub,2013-02-24 03:36:00,
2013-02-23 22:41:00,43.3,42.8,29.95,SW,225,0.0,0.0,98,0.00,,,0.74,meteohub,2013-02-24 03:41:00,
2013-02-23 22:46:00,43.3,42.8,29.94,SW,225,0.0,0.0,98,0.00,,,0.74,meteohub,2013-02-24 03:46:00,
2013-02-23 22:51:00,43.3,42.8,29.94,SW,225,0.0,0.0,98,0.00,,,0.74,meteohub,2013-02-24 03:51:00,
2013-02-23 22:56:00,43.3,42.8,29.93,SW,225,0.0,0.0,98,0.00,,,0.74,meteohub,2013-02-24 03:56:00,
2013-02-23 23:01:00,43.3,42.8,29.92,SW,225,0.0,0.0,98,0.00,,,0.74,meteohub,2013-02-24 04:01:00,
2013-02-23 23:06:00,43.3,42.8,29.92,SE,135,0.0,0.0,98,0.00,,,0.74,meteohub,2013-02-24 04:06:00,
2013-02-23 23:11:00,43.3,42.8,29.92,NW,315,0.0,0.0,98,0.00,,,0.74,meteohub,2013-02-24 04:11:00,
2013-02-23 23:16:00,43.3,42.8,29.92,NW,315,0.0,0.0,98,0.00,,,0.74,meteohub,2013-02-24 04:16:00,
2013-02-23 23:21:00,43.3,42.8,29.92,WSW,248,0.0,0.0,98,0.00,,,0.74,meteohub,2013-02-24 04:21:00,
2013-02-23 23:26:00,43.3,42.8,29.92,SE,135,0.0,0.0,98,0.00,,,0.74,meteohub,2013-02-24 04:26:00,
2013-02-23 23:31:00,43.3,42.8,29.93,South,180,0.0,0.0,98,0.00,,,0.74,meteohub,2013-02-24 04:31:00,
2013-02-23 23:37:00,43.3,42.8,29.93,South,180,0.0,0.0,98,0.00,,,0.74,meteohub,2013-02-24 04:37:00,
2013-02-23 23:42:00,43.3,42.8,29.94,NW,315,0.0,0.0,98,0.00,,,0.74,meteohub,2013-02-24 04:42:00,
2013-02-23 23:47:00,43.3,42.8,29.94,West,270,0.0,0.0,98,0.00,,,0.74,meteohub,2013-02-24 04:47:00,
2013-02-23 23:52:00,43.3,42.8,29.95,NW,315,0.0,0.0,98,0.00,,,0.74,meteohub,2013-02-24 04:52:00,
2013-02-23 23:57:00,43.3,42.8,29.95,NW,315,0.0,0.0,98,0.00,,,0.74,meteohub,2013-02-24 04:57:00,